CARBONITE 1 (CBNT-1)

Last updated on Mon Sep 21 2026 00:02:45 GMT+0000 (Coordinated Universal Time)

1 40718U 15032D 26263.60974428 .00000719 00000+0 92754-4 0 9997 2 40718 97.6572 77.7380 0014203 347.3832 12.7025 14.83833476603496
UTC large
Height (km)
Speed (km/s)
/
Latitude / Longitude
Inclination (degrees)
Orbital Period (minutes)
Azimuth
Elevation
Range (km)
Doppler Factor

Next 0 passes for location: London (51.5072 / 0.1276)

No passes found over London.
CARBONITE 1 (CBNT-1)